Showing default

SDX01, 62459

Orbit data source: Space-Track

SDX01, 62459 is a payload satellite owned by ISRO (IN) in LEO that was launched on Mon, 30 Dec 2024 UTC via a PSLV launch vehicle from the Sirharikota (SRI). Payload-class satellites include a variety of spacecraft equipped with specific instruments for various scientific and technological missions. These include communications satellites like Starlink; space stations such as the ISS; scientific satellites like the Hubble; Earth observation satellites from companies like Planet Labs, Umbra, and HawkEye 360; GPS; miniature CubeSats for education and research; and military/defense satellites.

Loading next visibility...
Identifier
62459, 2024-253A
Orbit
LEO
Last TLE update
9 hours ago
Origin
Manufacturer
ISRO
Mission
Operational Civil Technology
Bus & Motor
SPADEX, Unknown motor
Mass
220 kg wet, ~180 kg dry
Launch date (UTC)
2024-12-30 (6 months ago)
Launch vehicle
PSLV
Launch site
Sirharikota (SRI)
Object type
Payload
Rocket body
Debris
Shape & HBR
Box + 2 Pan, 2.5 m
Radar Cross Section
0.901 m², Large (>1 m²)

Expand to show TLE details & history

TLE from 9 hours ago
0 SDX01
1 62459U 24253A   25181.88011378  .00005891  00000-0  15752-3 0  9991
2 62459  54.9970 160.9506 0009203  41.9732 318.2000 15.39533684 27997
Epoch: 2025-06-30T21:07Z
TLE epoch observation values (Epoch: 2025-06-30T21:07:21.83Z)
Latitude
-0.00005°
Longitude
-75.07397°
Altitude
443.907 km
Speed
7.649 km/s
True Right ascension
10h 43m 48s
True Declination
0° 00' 00"
Sunlit
Object was in daylight at epoch
Visualization orbit readout
Latitude
-55.02558°
Longitude
-172.17562°
Altitude
471.376 km
Speed
7.627 km/s
Apparent Right ascension
05h 03m 23s
Apparent Declination
-48° 03' 51"
Sunlit
Object is in daylight
Visualization observer readout
Local Sidereal Time
17:41:50
Azimuth
142.939° SSE
Elevation
-79.33°
Doppler factor
1
Orbital elements
Apogee altitude
453.731 km
Perigee altitude
441.168 km
Semi-major axis
6,825.587 km
Eccentricity
0.00092
Inclination
54.997°
RAAN
160.9506°
Arg. of periapsis
41.9732°
True anomaly
Unknown
Mean anomaly
318.2°
Eccentric anomaly
Unknown
Mean motion
3.84887 °/min
Orbital period
93.53 mins
BSTAR
0.00015752
Loading maneuver chart data...
Loading SW <> Apogee altitude chart data...
Loading historical data...
Loading historical data...
Loading historical data...
Loading historical data...
Loading historical data...
Loading historical data...
Loading historical data...
Other satellites on launch #253 in the year 2024 (2024-12-30 UTC)

SDX01 Visibility forecast

Observer location: undefined°, undefined°

Span
Click to sort rows by Start time (UTC) header in descending order
Start Az.
Max El. time (UTC)
Max El. Az.
Max El.
End time (UTC)
End Az.
5 mins2025-07-01 08:33:06.356Z312.38° NW2025-07-01 08:35:06.356Z268.642° W44.956°2025-07-01 08:38:06.356Z135.053° SSE
5 mins2025-07-02 01:22:06.356Z245.98° WSW2025-07-02 01:24:06.356Z305.617° NW39.553°2025-07-02 01:27:06.356Z37.391° NE
|